| time (UTC) | temp F | wind direction | speed knots | gust knots | rain 1hr in | rain 24hr in | rain mn in | humidity % | barometer mb |
| 20260510112305 | 54 | 32 | 4.3 | 15.6 | 0.00 | 0.00 | 0.00 | 73 | 1017.0 |
| 20260510102305 | 55 | 44 | 4.3 | 12.2 | 0.00 | 0.00 | 0.00 | 73 | 1017.1 |
| 20260510092301 | 54 | 55 | 4.3 | 16.5 | 0.00 | 0.00 | 0.00 | 74 | 1017.2 |
| 20260510082302 | 53 | 15 | 4.3 | 13.9 | 0.00 | 0.00 | 0.00 | 76 | 1017.7 |
| 20260510072305 | 51 | 21 | 4.3 | 13.9 | 0.00 | 0.00 | 0.00 | 83 | 1017.5 |
| 20260510052300 | 49 | 63 | 3.5 | 12.2 | 0.00 | 0.00 | 0.00 | 90 | 1017.2 |
| 20260510042305 | 49 | 54 | 3.5 | 9.6 | 0.00 | 0.00 | 0.00 | 91 | 1017.2 |
| 20260510032301 | 49 | 42 | 4.3 | 10.4 | 0.00 | 0.00 | 0.00 | 92 | 1017.7 |
| 20260510022301 | 48 | 0 | 4.3 | 9.6 | 0.00 | 0.00 | 0.00 | 90 | 1017.6 |
| 20260510012301 | 50 | 53 | 3.5 | 7.8 | 0.00 | 0.00 | 0.00 | 86 | 1017.8 |
| 20260510002301 | 51 | 36 | 2.6 | 7.0 | 0.00 | 0.00 | 0.00 | 79 | 1017.7 |
| 20260509232306 | 52 | 40 | 1.7 | 6.1 | 0.00 | 0.00 | 0.00 | 80 | 1017.9 |
| 20260509222301 | 53 | 48 | 1.7 | 5.2 | 0.00 | 0.00 | 0.00 | 72 | 1017.8 |
| 20260509212305 | 55 | 32 | 0.9 | 4.3 | 0.00 | 0.00 | 0.00 | 64 | 1017.7 |
| 20260509202306 | 57 | 46 | 0.0 | 5.2 | 0.00 | 0.00 | 0.00 | 57 | 1017.3 |
| 20260509192300 | 58 | 58 | 0.9 | 4.3 | 0.00 | 0.00 | 0.00 | 57 | 1016.8 |
| 20260509182300 | 61 | 119 | 0.9 | 6.1 | 0.00 | 0.00 | 0.00 | 52 | 1016.9 |
| 20260509172259 | 63 | 110 | 0.9 | 6.1 | 0.00 | 0.00 | 0.00 | 51 | 1016.5 |
| 20260509162259 | 66 | 78 | 2.6 | 7.8 | 0.00 | 0.00 | 0.00 | 45 | 1016.7 |
| 20260509152259 | 68 | 0 | 1.7 | 8.7 | 0.00 | 0.00 | 0.00 | 45 | 1016.9 |
| 20260509142300 | 69 | 215 | 0.9 | 7.0 | 0.00 | 0.00 | 0.00 | 49 | 1016.3 |
| 20260509132313 | 68 | 38 | 2.6 | 7.8 | 0.00 | 0.00 | 0.00 | 47 | 1016.6 |
| 20260509122306 | 68 | 105 | 1.7 | 8.7 | 0.00 | 0.00 | 0.00 | 47 | 1017.1 |